User: anonymous   Login
Location: Unspecified
(0.0000°N, 0.0000°E)
Time: 13:52:56
(UTC+00:00)
Language:

Skynet 4A - Orbit

View from above orbital plane
View from above orbital plane
View from above satellite
View from above satellite

Ground track
Ground track

The orbit data is extracted from the following two-line orbital elements,

1 20401U 90001A   17323.85671090 -.00000185 +00000-0 +00000-0 0  9994
2 20401 013.3490 011.2896 0018402 244.1939 113.5960 00.98999735015766
Epoch (UTC): 19 November 2017 20:33:39
Eccentricity: 0.0018402
inclination: 13.3490°
perigee height: 36068 km
apogee height: 36225 km
right ascension of ascending node: 11.2896°
argument of perigee: 244.1939°
revolutions per day: 0.98999735
mean anomaly at epoch: 113.5960°
orbit number at epoch: 1576

The dashed part of the orbit path shows where the satellite is in the earth's shadow,  

DLR